When you browse on this site, cookies collect data to enhance your experience and personalize the content and advertising you see.
Visit our Privacy Policy to learn more. By continuing to use the site, you agree to this use of cookies and data.

Tiempo cada hora Romny

Hoy, 7 Julio, Martes

Tiempo Temperatura Precipitaciones Viento Presión Humedad
00:00 +21°C° 0 mm 2 mps 741 mmHg 90%
01:00 +21°C° 0 mm 2 mps 741 mmHg 92%
02:00 +21°C° 0 mm 2 mps 741 mmHg 92%
03:00 +21°C° 0.2 mm 2 mps 741 mmHg 93%
04:00 +21°C° 0.2 mm 2 mps 740 mmHg 93%
05:00 +22°C° 0.2 mm 1 mps 740 mmHg 93%
06:00 +24°C° 0.1 mm 2 mps 740 mmHg 87%
07:00 +25°C° 0.1 mm 2 mps 740 mmHg 81%
08:00 +27°C° 0 mm 2 mps 740 mmHg 75%
09:00 +28°C° 0 mm 2 mps 740 mmHg 70%
10:00 +30°C° 0 mm 2 mps 739 mmHg 65%
11:00 +31°C° 0 mm 2 mps 739 mmHg 60%
12:00 +32°C° 0 mm 2 mps 739 mmHg 58%
13:00 +32°C° 0 mm 2 mps 739 mmHg 55%
14:00 +34°C° 0 mm 2 mps 738 mmHg 52%
15:00 +32°C° 0.2 mm 2 mps 738 mmHg 56%
16:00 +33°C° 0.2 mm 3 mps 738 mmHg 61%
17:00 +31°C° 0.2 mm 3 mps 738 mmHg 65%
18:00 +28°C° 2.2 mm 4 mps 738 mmHg 74%
19:00 +25°C° 2.2 mm 4 mps 738 mmHg 83%
20:00 +21°C° 2.2 mm 5 mps 738 mmHg 92%
21:00 +20°C° 1.4 mm 4 mps 738 mmHg 93%
22:00 +20°C° 1.4 mm 4 mps 738 mmHg 94%
23:00 +19°C° 1.4 mm 3 mps 739 mmHg 95%

Mañana, 8 Julio, Miércoles

Tiempo Temperatura Precipitaciones Viento Presión Humedad
00:00 +19°C° 0.5 mm 5 mps 739 mmHg 95%
01:00 +19°C° 0.5 mm 6 mps 739 mmHg 95%
02:00 +17°C° 0.5 mm 7 mps 739 mmHg 95%
03:00 +16°C° 0 mm 7 mps 740 mmHg 94%
04:00 +15°C° 0 mm 6 mps 740 mmHg 93%
05:00 +15°C° 0 mm 6 mps 740 mmHg 93%
06:00 +14°C° 0.1 mm 6 mps 740 mmHg 92%
07:00 +14°C° 0.1 mm 7 mps 741 mmHg 92%
08:00 +12°C° 0.1 mm 7 mps 741 mmHg 91%
09:00 +12°C° 0.5 mm 7 mps 742 mmHg 91%
10:00 +12°C° 0.5 mm 7 mps 743 mmHg 91%
11:00 +12°C° 0.5 mm 7 mps 743 mmHg 90%
12:00 +14°C° 0.1 mm 7 mps 743 mmHg 87%
13:00 +15°C° 0.1 mm 7 mps 744 mmHg 84%
14:00 +16°C° 0.1 mm 7 mps 744 mmHg 81%
15:00 +16°C° 0 mm 6 mps 744 mmHg 78%
16:00 +17°C° 0 mm 6 mps 745 mmHg 76%
17:00 +19°C° 0 mm 5 mps 745 mmHg 73%
18:00 +18°C° 0 mm 4 mps 745 mmHg 78%
19:00 +17°C° 0 mm 3 mps 746 mmHg 83%
20:00 +16°C° 0 mm 2 mps 746 mmHg 88%
21:00 +14°C° 0 mm 3 mps 746 mmHg 88%
22:00 +14°C° 0 mm 3 mps 746 mmHg 88%
23:00 +13°C° 0 mm 4 mps 746 mmHg 88%

Pasado mañana, 9 Julio, Jueves

Tiempo Temperatura Precipitaciones Viento Presión Humedad
00:00 +13°C° 0 mm 4 mps 746 mmHg 88%
01:00 +12°C° 0 mm 4 mps 747 mmHg 89%
02:00 +12°C° 0 mm 3 mps 747 mmHg 89%
03:00 +12°C° 0 mm 3 mps 747 mmHg 88%
04:00 +12°C° 0 mm 3 mps 747 mmHg 87%
05:00 +11°C° 0 mm 3 mps 747 mmHg 87%
06:00 +13°C° 0 mm 3 mps 748 mmHg 82%
07:00 +16°C° 0 mm 3 mps 748 mmHg 78%
08:00 +18°C° 0 mm 3 mps 749 mmHg 73%
09:00 +19°C° 0 mm 3 mps 749 mmHg 70%
10:00 +20°C° 0 mm 4 mps 749 mmHg 66%
11:00 +21°C° 0 mm 4 mps 749 mmHg 63%
12:00 +21°C° 0.1 mm 4 mps 749 mmHg 65%
13:00 +21°C° 0.1 mm 4 mps 749 mmHg 66%
14:00 +21°C° 0.1 mm 5 mps 749 mmHg 68%
15:00 +21°C° 0 mm 5 mps 749 mmHg 69%
16:00 +21°C° 0 mm 4 mps 749 mmHg 70%
17:00 +20°C° 0 mm 4 mps 749 mmHg 71%
18:00 +19°C° 0 mm 3 mps 749 mmHg 77%
19:00 +18°C° 0 mm 3 mps 750 mmHg 83%
20:00 +16°C° 0 mm 2 mps 750 mmHg 89%
21:00 +16°C° 0 mm 2 mps 750 mmHg 90%
22:00 +15°C° 0 mm 1 mps 750 mmHg 91%
23:00 +14°C° 0 mm 1 mps 750 mmHg 92%

10 Julio, Viernes

Tiempo Temperatura Precipitaciones Viento Presión Humedad
00:00 +14°C° 0 mm 1 mps 751 mmHg 92%
01:00 +14°C° 0 mm 1 mps 751 mmHg 92%
02:00 +13°C° 0 mm 1 mps 751 mmHg 92%
03:00 +14°C° 0 mm 1 mps 751 mmHg 92%
04:00 +13°C° 0 mm 0 mps 751 mmHg 91%
05:00 +13°C° 0 mm 0 mps 751 mmHg 91%
06:00 +15°C° 0 mm 0 mps 752 mmHg 84%
07:00 +17°C° 0 mm 0 mps 752 mmHg 78%
08:00 +19°C° 0 mm 0 mps 752 mmHg 72%
09:00 +20°C° 0 mm 0 mps 752 mmHg 67%
10:00 +21°C° 0 mm 0 mps 752 mmHg 62%
11:00 +22°C° 0 mm 0 mps 753 mmHg 57%
12:00 +23°C° 0 mm 0 mps 752 mmHg 54%
13:00 +23°C° 0 mm 0 mps 752 mmHg 52%
14:00 +24°C° 0 mm 0 mps 752 mmHg 50%
15:00 +23°C° 0 mm 0 mps 752 mmHg 51%
16:00 +23°C° 0 mm 0 mps 752 mmHg 53%
17:00 +23°C° 0 mm 0 mps 752 mmHg 54%
18:00 +23°C° 0 mm 1 mps 752 mmHg 59%
19:00 +22°C° 0 mm 1 mps 752 mmHg 64%
20:00 +20°C° 0 mm 1 mps 752 mmHg 68%
21:00 +18°C° 0 mm 2 mps 752 mmHg 70%
22:00 +18°C° 0 mm 2 mps 752 mmHg 72%
23:00 +17°C° 0 mm 2 mps 752 mmHg 74%

11 Julio, Sábado

Tiempo Temperatura Precipitaciones Viento Presión Humedad
00:00 +17°C° 0 mm 2 mps 752 mmHg 75%
01:00 +16°C° 0 mm 2 mps 752 mmHg 77%
02:00 +16°C° 0 mm 2 mps 752 mmHg 78%
03:00 +16°C° 0 mm 3 mps 752 mmHg 79%
04:00 +16°C° 0 mm 3 mps 752 mmHg 81%
05:00 +16°C° 0 mm 3 mps 752 mmHg 82%
06:00 +18°C° 0 mm 3 mps 752 mmHg 78%
07:00 +19°C° 0 mm 3 mps 752 mmHg 75%
08:00 +21°C° 0 mm 3 mps 752 mmHg 71%
09:00 +22°C° 0 mm 4 mps 752 mmHg 67%
10:00 +25°C° 0 mm 4 mps 752 mmHg 63%
11:00 +26°C° 0 mm 4 mps 752 mmHg 59%
12:00 +26°C° 0 mm 3 mps 752 mmHg 58%
13:00 +27°C° 0 mm 3 mps 751 mmHg 57%
14:00 +27°C° 0 mm 3 mps 751 mmHg 56%
15:00 +27°C° 0 mm 3 mps 751 mmHg 58%
16:00 +27°C° 0 mm 2 mps 750 mmHg 60%
17:00 +27°C° 0 mm 2 mps 750 mmHg 61%
18:00 +25°C° 0 mm 2 mps 750 mmHg 65%
19:00 +24°C° 0 mm 2 mps 750 mmHg 68%
20:00 +21°C° 0 mm 2 mps 750 mmHg 71%
21:00 +21°C° 0 mm 2 mps 750 mmHg 71%
22:00 +20°C° 0 mm 2 mps 750 mmHg 71%
23:00 +19°C° 0 mm 2 mps 750 mmHg 71%

12 Julio, Domingo

Tiempo Temperatura Precipitaciones Viento Presión Humedad
00:00 +19°C° 0 mm 2 mps 750 mmHg 71%
01:00 +19°C° 0 mm 2 mps 750 mmHg 71%
02:00 +18°C° 0 mm 2 mps 750 mmHg 72%
03:00 +18°C° 0 mm 2 mps 750 mmHg 73%
04:00 +19°C° 0 mm 1 mps 749 mmHg 75%
05:00 +19°C° 0 mm 1 mps 749 mmHg 77%
06:00 +20°C° 0 mm 1 mps 749 mmHg 72%
07:00 +22°C° 0 mm 1 mps 749 mmHg 68%
08:00 +24°C° 0 mm 1 mps 749 mmHg 64%
09:00 +25°C° 0 mm 1 mps 749 mmHg 62%
10:00 +26°C° 0 mm 1 mps 749 mmHg 60%
11:00 +27°C° 0 mm 2 mps 749 mmHg 57%
12:00 +27°C° 0.1 mm 2 mps 749 mmHg 55%
13:00 +28°C° 0.1 mm 2 mps 748 mmHg 54%
14:00 +28°C° 0.1 mm 2 mps 748 mmHg 52%
15:00 +28°C° 0.2 mm 2 mps 748 mmHg 54%
16:00 +28°C° 0.2 mm 1 mps 748 mmHg 56%
17:00 +27°C° 0.2 mm 1 mps 747 mmHg 58%
18:00 +26°C° 0 mm 2 mps 747 mmHg 65%
19:00 +24°C° 0 mm 2 mps 747 mmHg 72%
20:00 +21°C° 0 mm 2 mps 747 mmHg 79%
21:00 +20°C° 0 mm 3 mps 747 mmHg 84%
22:00 +19°C° 0 mm 4 mps 747 mmHg 89%
23:00 +17°C° 0 mm 5 mps 747 mmHg 94%
Mostrar más